Regional Weather Roundup
Issued by NWS

Home | Current Version | Previous Version | Graphics & Text | Print | Product List | Glossary On
Versions: 1 2 3 4 5 6 7 8 9 10 11 12 13 14 15 16 17 18 19 20 21 22 23 24 25 26 27 28 29 30 31 32 33 34 35 36 37 38 39 40 41 42 43 44 45 46 47 48 49 50
000
ASUS43 KIND 261959
RWRIN

WEATHER ROUNDUP FOR INDIANA
NATIONAL WEATHER SERVICE INDIANAPOLIS IN
400 PM EDT THU APR 26 2018

NOTE: "FAIR" INDICATES FEW OR NO CLOUDS BELOW 12,000 FEET WITH NO
SIGNIFICANT WEATHER AND/OR OBSTRUCTIONS TO VISIBILITY.

* - STATION DOES NOT REPORT WEATHER SUCH AS PRECIPITATION OR FOG.

+ - STATION NOT QUALITY CONTROLLED BY THE NATIONAL WEATHER SERVICE.
    USE DATA WITH CAUTION...ESPECIALLY DEWPOINT AND RELATIVE
    HUMIDITY OBSERVATIONS.

INZ001>003-010>013-019-020-262100-
NORTHWEST INDIANA

CITY           SKY/WX    TMP DP  RH WIND       PRES   REMARKS
KNOX *+        FAIR      63  32  31 NW3       29.89F
MONTICELLO +   FAIR      64  28  26 N6        29.89F

$$

LMZ046-743>745-262100-
SOUTHERN LAKE MICHIGAN

STATION/POSITION TIME  TEMP    WIND        PRES    WAVE
                       AIR SEA DIR/SP/G            HT
                 (UTC) (F)     (DEG/KT/KT) (MB)    (FT)
BURNS HARBOR     1940   46      70/  5/  6 1014.2F
MICHIGAN CITY    1930   41      20/  5/  5   N/A

$$

INZ004-005-014>016-021>024-262100-
NORTH CENTRAL INDIANA

CITY           SKY/WX    TMP DP  RH WIND       PRES   REMARKS
ELKHART        FAIR      64  32  29 CALM      29.88F
GOSHEN         FAIR      61  36  39 VRB3      29.88F
ROCHESTER +    FAIR      64  34  32 S5        29.89F
SOUTH BEND     FAIR      62  30  29 CALM      29.90F
WARSAW +       FAIR      61  32  33 CALM      29.89S

$$

INZ006>009-017-018-025>027-262100-
NORTHEAST INDIANA

CITY           SKY/WX    TMP DP  RH WIND       PRES   REMARKS
ANGOLA *+      FAIR      61  32  33 VRB3      29.87F
FORT WAYNE     FAIR      64  37  36 VRB3      29.89F
KENDALLVILLE + FAIR      61  27  27 SW5       29.88F

$$

INZ028-029-035-036-043>045-051>053-262100-
WEST CENTRAL INDIANA

CITY           SKY/WX    TMP DP  RH WIND       PRES   REMARKS
GREENCASTLE +  FAIR      63  30  29 NW6       29.89F
LAFAYETTE      FAIR      63  35  35 VRB5      29.89F
TERRE HAUTE    FAIR      65  30  27 VRB6      29.89F

$$

INZ030>032-037>040-046>048-054>057-064-065-262100-
CENTRAL INDIANA

CITY           SKY/WX    TMP DP  RH WIND       PRES   REMARKS
GREENWOOD *+   FAIR      62  31  30 NW3       29.87F
INDIANAPOLIS   FAIR      65  35  33 NW7       29.87F
-EAGLE CREEK   FAIR      63  35  35 SW5       29.87F
KOKOMO +       FAIR      64  37  36 VRB3      29.89F
MT COMFORT *+  FAIR      63  41  45 CALM      29.88F
SHELBYVILLE    FAIR      65  31  28 NE3       29.86F
ZIONSVILLE +   FAIR      62  33  34 E3        29.89F

$$

INZ033-034-041-042-049-050-058-059-262100-
EAST CENTRAL INDIANA

CITY           SKY/WX    TMP DP  RH WIND       PRES   REMARKS
MUNCIE         FAIR      65  33  30 CALM      29.87F
RICHMOND +     FAIR      63  28  27 NE3       29.87F

$$

INZ060-061-067>069-081>083-085>088-262100-
SOUTHWEST INDIANA

CITY           SKY/WX    TMP DP  RH WIND       PRES   REMARKS
EVANSVILLE     FAIR      65  35  33 N10       29.88F
HUNTINGBURG +  FAIR      66  34  30 NW6       29.87F

$$

INZ062-063-066-070>080-084-089>092-262100-
SOUTH CENTRAL AND SOUTHEAST INDIANA

CITY           SKY/WX    TMP DP  RH WIND       PRES   REMARKS
BLOOMINGTON    FAIR      66  29  24 NE6       29.86F
FRENCH LICK *+ FAIR      66  18  15 W7        29.85F
SEYMOUR +      FAIR      66  34  30 N5        29.87F

$$




USA.gov is the U.S. government's official web portal to all federal, state and local government web resources and services.